Regional Weather Roundup
Issued by NWS Sioux Falls, SD

Home | Current Version | Previous Version | Text Only | Print | Product List | Glossary On
Versions: 1 2 3 4 5 6 7 8 9 10 11 12 13 14 15 16 17 18 19 20 21 22 23 24 25 26 27 28 29 30 31 32 33 34 35 36 37 38 39 40 41 42 43 44 45 46 47 48 49 50
000
ASUS43 KFSD 211502
RWRFSD

WEATHER ROUNDUP FOR SE SOUTH DAKOTA/SW MINNESOTA/NW IOWA
NATIONAL WEATHER SERVICE SIOUX FALLS SD
900 AM CST SUN DEC 21 2014

NOTE: "FAIR" INDICATES FEW OR NO CLOUDS BELOW 12,000 FEET WITH NO
SIGNIFICANT WEATHER AND OR OBSTRUCTIONS TO VISIBILITY.


SDZ038>040-050-052>070-211600-
SOUTHEAST SOUTH DAKOTA

CITY           SKY/WX    TMP DP  RH WIND       PRES   REMARKS
CHAMBERLAIN    NOT AVBL
HURON          FOG       30  30 100 S8        29.70F VSB 1/2 WCI  22
MADISON        FOG       30  30 100 S10       29.72F VSB<1/4 WCI  21
MITCHELL       FOG       31  31 100 SE14      29.71F VSB 1/4 WCI  21
SIOUX FALLS    FOG       32  32 100 S13       29.75S VSB 1/8 WCI  22
WINNER         FAIR      35  26  69 S18       29.61F WCI  24
YANKTON        CLOUDY    32  30  93 S8        29.77S WCI  25
$$

MNZ071-072-080-081-089-090-097-098-211600-
SOUTHWEST MINNESOTA

CITY           SKY/WX    TMP DP  RH WIND       PRES   REMARKS
FAIRMONT       CLOUDY    36  32  87 S17       29.82F
JACKSON        CLOUDY    34  32  93 S14       29.81F FOG     WCI  24
LUVERNE        FOG       34  32  93 SE6       29.78F VSB 1/4 WCI  29
MARSHALL       CLOUDY    34  28  80 S12       29.77F WCI  25
MONTEVIDEO     CLOUDY    32  32 100 S7        29.79F FOG     WCI  26
PIPESTONE      SNOW      32  30  93 S3        29.73F VSB<1/4
REDWOOD FALLS  FOG       33  33 100 SE10      29.81F VSB 1/4 WCI  25
TRACY          CLOUDY    33  33  98 S8        29.77F FOG     WCI  27
WINDOM         CLOUDY    34  34 100 S10G16    29.80S FOG     WCI  26
WORTHINGTON    CLOUDY    34 -15  12 S12       29.79S VSB 1/2 WCI  25
$$

IAZ001>003-012>014-020>022-031-032-NEZ013-014-SDZ071-211600-
NORTHWEST IOWA

CITY           SKY/WX    TMP DP  RH WIND       PRES   REMARKS
DENISON        CLOUDY    37  37 100 S21       29.83F FOG
ESTHERVILLE    CLOUDY    34  34 100 S17       29.81F FOG     WCI  23
SIOUX CITY     CLOUDY    37  36  96 S12       29.81F FOG
SPENCER        CLOUDY    36  34  92 S15       29.81F FOG
$$

ABBREVIATIONS USED IN REMARKS
   TC - TEMPERATURE IN CELSIUS
  WCI - WIND CHILL INDEX
   HX - HEAT INDEX
  VSB - VISIBILITY



USA.gov is the U.S. government's official web portal to all federal, state and local government web resources and services.